Zurück zum Katalog

FENGYUN 1C DEB

AktivPO
NORAD 36696·DEBRIS·🇨🇳 China

Gestartet May 10, 1999 von Taiyuan Satellite Launch Center

Loading…

Nächste Überflüge (nächste 24 Stunden)

TLE

AlterndSource: Space-Track

Epoche: Sep 7, 2026, 00:44 UTC

1 36696U 99025DZS 26250.03095149  .00002470  00000-0  76517-3 0  9993
2 36696  98.9836 277.5546 0021462 251.0561 108.8301 14.42014969682597

Verfolge FENGYUN 1C DEB in Echtzeit mit AllMySat

Download on the App Store